{"data":{"norad_id":61669,"intl_designator":"2024-193J","name":"STARLINK-32400","alt_names":[],"object_type":"PAYLOAD","status":"ACTIVE","operator":null,"country":"US","launch_date":"2024-10-26","launch_site_code":"AFETR","launch_vehicle":null,"mission":null,"orbit_class":"UNKNOWN","rcs_meters":null,"size_class":null,"mass_kg":null,"dimensions":null,"purposes":["comms"],"wikipedia_slug":null,"has_3d_model":false,"image_url":null,"decayed_at":null,"tle_current":{"epoch":"2026-09-20T23:27:45.958464Z","epoch_age_seconds":150749,"freshness":"FRESH","line1":"1 61669U 24193J   26263.97761526  .00002943  00000+0  98181-4 0  9997","line2":"2 61669  53.1592 259.1280 0001371  49.2531 310.8590 15.34406420106493","mean_motion":15.3440642,"eccentricity":0.0001371,"inclination_deg":53.1592,"raan_deg":259.128,"arg_perigee_deg":49.2531,"mean_anomaly_deg":310.859,"bstar":9.8181e-5,"rev_number":10649,"period_min":93.847365419652,"perigee_km":461.74628209983,"apogee_km":463.62203526154,"semimajor_km":6840.8211586807,"source":"CELESTRAK","updated_at":"2026-09-22T09:00:49.401443Z"}}}